Consulta los datos en tiempo real de la estación meteorológica de Museu de l'Esquerda
| Hora UTC | 17:55 |
|---|---|
| Temperatura | 30.1 ºC |
| Humedad | 49.0 % |
| Presión | 1020.3 hPa |
| Pluja | 0.0 mm |
| Velocidad viento | 3.2 km/h |
| Dirección viento | SSE |
| Radiación solar | 18.0 W/m² |
| Temperatura (ºC) | Humedad (%) | Presión (hPa) | Velocidad viento (km/h) | Precipitación (mm) | Radiación solar (W/m²) | |||||||||||||
|---|---|---|---|---|---|---|---|---|---|---|---|---|---|---|---|---|---|---|
| Hora UTC | Aire | Humedad | Presión | Vel. | Dir. | Vel. Max | Dir. | Intent. máx 5 min. | Rad. Sol. | |||||||||
| 00:05 | 18.8 | 81.0 | 1022.6 | 0.0 | N | 0.0 | 0.0 | 0.0 | ||||||||||
| 00:10 | 18.7 | 81.0 | 1022.6 | 0.0 | N | 0.0 | 0.0 | 0.0 | ||||||||||
| 00:15 | 18.7 | 81.0 | 1022.6 | 0.0 | N | 0.0 | 0.0 | 0.0 | ||||||||||
| 00:20 | 18.7 | 81.0 | 1022.6 | 0.0 | N | 0.0 | 0.0 | 0.0 | ||||||||||
| 00:25 | 18.6 | 81.0 | 1022.7 | 0.0 | N | 0.0 | 0.0 | 0.0 | ||||||||||
| 00:30 | 18.5 | 81.0 | 1022.7 | 0.0 | N | 0.0 | 0.0 | 0.0 | ||||||||||
| 00:35 | 18.4 | 82.0 | 1022.8 | 0.0 | N | 0.0 | 0.0 | 0.0 | ||||||||||
| 00:40 | 18.4 | 82.0 | 1022.8 | 0.0 | N | 0.0 | 0.0 | 0.0 | ||||||||||
| 00:45 | 18.3 | 83.0 | 1022.8 | 0.0 | N | 0.0 | 0.0 | 0.0 | ||||||||||
| 00:50 | 18.3 | 83.0 | 1022.7 | 0.0 | N | 0.0 | 0.0 | 0.0 | ||||||||||
| 00:55 | 18.3 | 84.0 | 1022.7 | 0.0 | N | 0.0 | 0.0 | 0.0 | ||||||||||
| 01:00 | 18.2 | 84.0 | 1022.7 | 0.0 | N | 0.0 | 0.0 | 0.0 | ||||||||||
| 01:05 | 18.2 | 85.0 | 1022.7 | 0.0 | N | 0.0 | 0.0 | 0.0 | ||||||||||
| 01:10 | 18.2 | 85.0 | 1022.7 | 0.0 | N | 0.0 | 0.0 | 0.0 | ||||||||||
| 01:15 | 18.1 | 85.0 | 1022.7 | 0.0 | N | 0.0 | 0.0 | 0.0 | ||||||||||
| 01:20 | 18.1 | 86.0 | 1022.6 | 0.0 | S | 0.0 | 0.0 | 0.0 | ||||||||||
| 01:25 | 18.0 | 86.0 | 1022.7 | 0.0 | S | 0.0 | 0.0 | 0.0 | ||||||||||
| 01:30 | 17.9 | 86.0 | 1022.7 | 0.0 | S | 0.0 | 0.0 | 0.0 | ||||||||||
| 01:35 | 17.8 | 86.0 | 1022.7 | 0.0 | S | 0.0 | 0.0 | 0.0 | ||||||||||
| 01:40 | 17.8 | 86.0 | 1022.7 | 0.0 | S | 0.0 | 0.0 | 0.0 | ||||||||||
| 01:45 | 17.7 | 86.0 | 1022.7 | 0.0 | S | 0.0 | 0.0 | 0.0 | ||||||||||
| 01:50 | 17.6 | 86.0 | 1022.7 | 0.0 | S | 0.0 | 0.0 | 0.0 | ||||||||||
| 01:55 | 17.5 | 86.0 | 1022.7 | 0.0 | S | 0.0 | 0.0 | 0.0 | ||||||||||
| 02:00 | 17.4 | 86.0 | 1022.6 | 0.0 | S | 0.0 | 0.0 | 0.0 | ||||||||||
| 02:05 | 17.3 | 86.0 | 1022.7 | 0.0 | S | 0.0 | 0.0 | 0.0 | ||||||||||
| 02:10 | 17.3 | 86.0 | 1022.6 | 0.0 | S | 0.0 | 0.0 | 0.0 | ||||||||||
| 02:15 | 17.2 | 86.0 | 1022.7 | 0.0 | S | 0.0 | 0.0 | 0.0 | ||||||||||
| 02:20 | 17.2 | 86.0 | 1022.7 | 0.0 | S | 0.0 | 0.0 | 0.0 | ||||||||||
| 02:25 | 17.1 | 86.0 | 1022.7 | 0.0 | S | 0.0 | 0.0 | 0.0 | ||||||||||
| 02:30 | 17.1 | 87.0 | 1022.8 | 0.0 | S | 0.0 | 0.0 | 0.0 | ||||||||||
| 02:35 | 17.0 | 87.0 | 1022.8 | 0.0 | S | 0.0 | 0.0 | 0.0 | ||||||||||
| 02:40 | 17.0 | 87.0 | 1022.7 | 0.0 | S | 0.0 | 0.0 | 0.0 | ||||||||||
| 02:45 | 17.0 | 87.0 | 1022.7 | 0.0 | S | 0.0 | 0.0 | 0.0 | ||||||||||
| 02:50 | 16.9 | 88.0 | 1022.7 | 0.0 | S | 0.0 | 0.0 | 0.0 | ||||||||||
| 02:55 | 16.9 | 88.0 | 1022.7 | 0.0 | S | 0.0 | 0.0 | 0.0 | ||||||||||
| 03:00 | 16.8 | 88.0 | 1022.7 | 0.0 | S | 0.0 | 0.0 | 0.0 | ||||||||||
| 03:05 | 16.7 | 88.0 | 1022.8 | 0.0 | S | 0.0 | 0.0 | 0.0 | ||||||||||
| 03:10 | 16.7 | 88.0 | 1022.6 | 0.0 | S | 0.0 | 0.0 | 0.0 | ||||||||||
| 03:15 | 16.7 | 88.0 | 1022.7 | 0.0 | S | 0.0 | 0.0 | 0.0 | ||||||||||
| 03:20 | 16.8 | 88.0 | 1022.6 | 0.0 | S | 0.0 | 0.0 | 0.0 | ||||||||||
| 03:25 | 16.7 | 89.0 | 1022.6 | 0.0 | S | 0.0 | 0.0 | 0.0 | ||||||||||
| 03:30 | 16.7 | 89.0 | 1022.6 | 0.0 | S | 0.0 | 0.0 | 0.0 | ||||||||||
| 03:35 | 16.7 | 89.0 | 1022.5 | 0.0 | S | 0.0 | 0.0 | 0.0 | ||||||||||
| 03:40 | 16.6 | 89.0 | 1022.4 | 0.0 | S | 0.0 | 0.0 | 0.0 | ||||||||||
| 03:45 | 16.6 | 89.0 | 1022.4 | 0.0 | S | 0.0 | 0.0 | 0.0 | ||||||||||
| 03:50 | 16.6 | 89.0 | 1022.4 | 0.0 | S | 0.0 | 0.0 | 0.0 | ||||||||||
| 03:55 | 16.4 | 89.0 | 1022.4 | 0.0 | S | 0.0 | 0.0 | 0.0 | ||||||||||
| 04:00 | 16.4 | 90.0 | 1022.4 | 0.0 | S | 0.0 | 0.0 | 0.0 | ||||||||||
| 04:05 | 16.3 | 90.0 | 1022.4 | 0.0 | S | 0.0 | 0.0 | 0.0 | ||||||||||
| 04:10 | 16.3 | 90.0 | 1022.2 | 0.0 | S | 0.0 | 0.0 | 0.0 | ||||||||||
| 04:15 | 16.2 | 90.0 | 1022.2 | 0.0 | S | 0.0 | 0.0 | 0.0 | ||||||||||
| 04:20 | 16.3 | 90.0 | 1022.2 | 0.0 | S | 0.0 | 0.0 | 0.0 | ||||||||||
| 04:25 | 16.2 | 90.0 | 1022.1 | 0.0 | SSE | 0.0 | 0.0 | 0.0 | ||||||||||
| 04:30 | 16.1 | 90.0 | 1022.2 | 0.0 | SSE | 0.0 | 0.0 | 0.0 | ||||||||||
| 04:35 | 16.0 | 90.0 | 1022.2 | 0.0 | SSE | 0.0 | 0.0 | 0.0 | ||||||||||
| 04:40 | 15.9 | 90.0 | 1022.2 | 0.0 | SSE | 0.0 | 0.0 | 0.0 | ||||||||||
| 04:45 | 15.9 | 90.0 | 1022.2 | 0.0 | SSE | 0.0 | 0.0 | 0.0 | ||||||||||
| 04:50 | 15.9 | 91.0 | 1022.3 | 0.0 | SSE | 0.0 | 0.0 | 0.0 | ||||||||||
| 04:55 | 15.9 | 91.0 | 1022.3 | 0.0 | SSE | 0.0 | 0.0 | 0.0 | ||||||||||
| 05:00 | 15.9 | 91.0 | 1022.4 | 0.0 | SSE | 0.0 | 0.0 | 0.0 | ||||||||||
| 05:05 | 15.8 | 91.0 | 1022.3 | 0.0 | SSE | 0.0 | 0.0 | 0.0 | ||||||||||
| 05:10 | 15.8 | 91.0 | 1022.5 | 0.0 | SSE | 0.0 | 0.0 | 0.0 | ||||||||||
| 05:15 | 15.7 | 91.0 | 1022.4 | 0.0 | SSE | 0.0 | 0.0 | 0.0 | ||||||||||
| 05:20 | 15.6 | 91.0 | 1022.5 | 0.0 | SSE | 0.0 | 0.0 | 0.0 | ||||||||||
| 05:25 | 15.6 | 91.0 | 1022.5 | 0.0 | SSE | 0.0 | 0.0 | 5.0 | ||||||||||
| 05:30 | 15.6 | 91.0 | 1022.6 | 0.0 | SSE | 0.0 | 0.0 | 7.0 | ||||||||||
| 05:35 | 15.6 | 91.0 | 1022.7 | 0.0 | SSE | 0.0 | 0.0 | 11.0 | ||||||||||
| 05:40 | 15.6 | 91.0 | 1022.8 | 0.0 | SSE | 0.0 | 0.0 | 12.0 | ||||||||||
| 05:45 | 15.6 | 91.0 | 1022.8 | 0.0 | SSE | 0.0 | 0.0 | 16.0 | ||||||||||
| 05:50 | 15.6 | 91.0 | 1022.8 | 0.0 | SSE | 0.0 | 0.0 | 18.0 | ||||||||||
| 05:55 | 15.5 | 91.0 | 1022.8 | 0.0 | S | 0.0 | 0.0 | 19.0 | ||||||||||
| 06:00 | 15.5 | 91.0 | 1022.9 | 0.0 | N | 0.0 | 0.0 | 33.0 | ||||||||||
| 06:05 | 15.5 | 91.0 | 1022.9 | 0.0 | N | 0.0 | 0.0 | 30.0 | ||||||||||
| 06:10 | 15.6 | 92.0 | 1022.9 | 0.0 | N | 0.0 | 0.0 | 33.0 | ||||||||||
| 06:15 | 15.6 | 92.0 | 1023.0 | 0.0 | S | 0.0 | 0.0 | 40.0 | ||||||||||
| 06:20 | 15.7 | 92.0 | 1023.1 | 0.0 | S | 0.0 | 0.0 | 42.0 | ||||||||||
| 06:25 | 15.7 | 92.0 | 1023.1 | 0.0 | S | 0.0 | 0.0 | 35.0 | ||||||||||
| 06:30 | 15.8 | 92.0 | 1023.1 | 0.0 | S | 0.0 | 0.0 | 42.0 | ||||||||||
| 06:35 | 15.9 | 92.0 | 1023.1 | 0.0 | N | 0.0 | 0.0 | 141.0 | ||||||||||
| 06:40 | 16.1 | 92.0 | 1023.1 | 0.0 | N | 0.0 | 0.0 | 153.0 | ||||||||||
| 06:45 | 16.4 | 92.0 | 1023.2 | 0.0 | N | 0.0 | 0.0 | 165.0 | ||||||||||
| 06:50 | 16.8 | 92.0 | 1023.1 | 0.0 | N | 0.0 | 0.0 | 176.0 | ||||||||||
| 06:55 | 17.2 | 91.0 | 1023.2 | 0.0 | N | 0.0 | 0.0 | 188.0 | ||||||||||
| 07:00 | 17.6 | 89.0 | 1023.1 | 0.0 | N | 0.0 | 0.0 | 204.0 | ||||||||||
| 07:00 | 17.7 | 89.0 | 1023.1 | 0.0 | N | 0.0 | 0.0 | 207.0 | ||||||||||
| 07:10 | 18.4 | 86.0 | 1023.1 | 0.0 | N | 0.0 | 0.0 | 234.0 | ||||||||||
| 07:15 | 18.8 | 84.0 | 1023.1 | 0.0 | N | 0.0 | 0.0 | 250.0 | ||||||||||
| 07:20 | 19.1 | 83.0 | 1023.1 | 0.0 | N | 0.0 | 0.0 | 267.0 | ||||||||||
| 07:25 | 19.4 | 81.0 | 1023.2 | 0.0 | SSE | 0.0 | 0.0 | 281.0 | ||||||||||
| 07:30 | 19.9 | 81.0 | 1023.1 | 0.0 | SSE | 0.0 | 0.0 | 295.0 | ||||||||||
| 07:35 | 20.3 | 79.0 | 1023.1 | 0.0 | SSE | 0.0 | 0.0 | 313.0 | ||||||||||
| 07:40 | 20.4 | 78.0 | 1023.1 | 0.0 | SSE | 0.0 | 0.0 | 323.0 | ||||||||||
| 07:45 | 20.6 | 77.0 | 1023.1 | 0.0 | SSE | 0.0 | 0.0 | 336.0 | ||||||||||
| 07:50 | 21.0 | 77.0 | 1023.0 | 3.2 | SSE | 4.8 | 0.0 | 353.0 | ||||||||||
| 07:55 | 21.3 | 76.0 | 1023.0 | 0.0 | SSE | 4.8 | 0.0 | 366.0 | ||||||||||
| 08:00 | 21.6 | 75.0 | 1023.0 | 1.6 | SSE | 3.2 | 0.0 | 378.0 | ||||||||||
| 08:05 | 21.7 | 74.0 | 1022.9 | 0.0 | SSE | 1.6 | 0.0 | 392.0 | ||||||||||
| 08:10 | 21.9 | 74.0 | 1022.9 | 0.0 | SSE | 1.6 | 0.0 | 408.0 | ||||||||||
| 08:15 | 22.3 | 72.0 | 1022.8 | 0.0 | SSE | 0.0 | 0.0 | 420.0 | ||||||||||
| 08:20 | 22.7 | 71.0 | 1022.9 | 0.0 | SSE | 0.0 | 0.0 | 432.0 | ||||||||||
| 08:25 | 23.1 | 69.0 | 1023.0 | 0.0 | SSE | 0.0 | 0.0 | 443.0 | ||||||||||
| 08:30 | 23.2 | 69.0 | 1022.9 | 0.0 | SSE | 0.0 | 0.0 | 457.0 | ||||||||||
| 08:35 | 23.6 | 68.0 | 1022.9 | 0.0 | SSE | 3.2 | 0.0 | 471.0 | ||||||||||
| 08:40 | 24.2 | 68.0 | 1023.0 | 0.0 | SSE | 3.2 | 0.0 | 482.0 | ||||||||||
| 08:45 | 24.6 | 66.0 | 1022.9 | 0.0 | SSE | 1.6 | 0.0 | 494.0 | ||||||||||
| 08:50 | 24.8 | 66.0 | 1023.0 | 0.0 | SSE | 1.6 | 0.0 | 385.0 | ||||||||||
| 08:55 | 25.1 | 64.0 | 1023.0 | 0.0 | SSE | 1.6 | 0.0 | 417.0 | ||||||||||
| 09:00 | 25.5 | 64.0 | 1022.9 | 0.0 | S | 3.2 | 0.0 | 438.0 | ||||||||||
| 09:05 | 25.5 | 63.0 | 1023.0 | 3.2 | S | 3.2 | 0.0 | 515.0 | ||||||||||
| 09:10 | 26.1 | 62.0 | 1022.8 | 0.0 | S | 3.2 | 0.0 | 548.0 | ||||||||||
| 09:15 | 26.5 | 60.0 | 1022.7 | 0.0 | S | 3.2 | 0.0 | 316.0 | ||||||||||
| 09:20 | 27.1 | 60.0 | 1022.8 | 0.0 | S | 3.2 | 0.0 | 568.0 | ||||||||||
| 09:25 | 27.8 | 55.0 | 1022.8 | 1.6 | S | 3.2 | 0.0 | 380.0 | ||||||||||
| 09:30 | 28.1 | 54.0 | 1022.8 | 4.8 | SE | 4.8 | 0.0 | 592.0 | ||||||||||
| 09:35 | 28.2 | 50.0 | 1022.8 | 1.6 | SE | 6.4 | 0.0 | 443.0 | ||||||||||
| 09:40 | 28.4 | 48.0 | 1022.7 | 3.2 | SE | 6.4 | 0.0 | 564.0 | ||||||||||
| 09:45 | 28.7 | 46.0 | 1022.8 | 3.2 | SE | 6.4 | 0.0 | 592.0 | ||||||||||
| 09:50 | 29.0 | 46.0 | 1022.6 | 0.0 | ESE | 6.4 | 0.0 | 547.0 | ||||||||||
| 09:55 | 29.1 | 47.0 | 1022.6 | 0.0 | SE | 8.0 | 0.0 | 557.0 | ||||||||||
| 10:00 | 28.9 | 47.0 | 1022.6 | 1.6 | NNE | 9.7 | 0.0 | 640.0 | ||||||||||
| 10:05 | 29.3 | 47.0 | 1022.5 | 0.0 | ENE | 9.7 | 0.0 | 649.0 | ||||||||||
| 10:10 | 29.8 | 45.0 | 1022.5 | 1.6 | ENE | 6.4 | 0.0 | 654.0 | ||||||||||
| 10:15 | 29.6 | 45.0 | 1022.4 | 3.2 | ESE | 9.7 | 0.0 | 661.0 | ||||||||||
| 10:20 | 30.2 | 45.0 | 1022.5 | 1.6 | ENE | 9.7 | 0.0 | 663.0 | ||||||||||
| 10:25 | 30.4 | 43.0 | 1022.3 | 3.2 | ENE | 6.4 | 0.0 | 584.0 | ||||||||||
| 10:30 | 30.5 | 45.0 | 1022.3 | 1.6 | ENE | 6.4 | 0.0 | 594.0 | ||||||||||
| 10:35 | 30.9 | 44.0 | 1022.2 | 0.0 | SE | 6.4 | 0.0 | 659.0 | ||||||||||
| 10:40 | 31.3 | 44.0 | 1022.0 | 1.6 | SSE | 4.8 | 0.0 | 687.0 | ||||||||||
| 10:45 | 31.4 | 42.0 | 1022.1 | 0.0 | SSE | 4.8 | 0.0 | 693.0 | ||||||||||
| 10:50 | 31.3 | 42.0 | 1022.0 | 6.4 | S | 12.9 | 0.0 | 696.0 | ||||||||||
| 10:55 | 31.7 | 42.0 | 1021.9 | 0.0 | E | 12.9 | 0.0 | 700.0 | ||||||||||
| 11:00 | 31.2 | 43.0 | 1021.8 | 6.4 | NE | 9.7 | 0.0 | 710.0 | ||||||||||
| 11:05 | 31.3 | 43.0 | 1021.7 | 6.4 | ESE | 9.7 | 0.0 | 710.0 | ||||||||||
| 11:10 | 31.3 | 41.0 | 1021.7 | 3.2 | SE | 9.7 | 0.0 | 714.0 | ||||||||||
| 11:15 | 31.7 | 42.0 | 1021.6 | 4.8 | NE | 9.7 | 0.0 | 715.0 | ||||||||||
| 11:20 | 31.9 | 41.0 | 1021.6 | 0.0 | E | 6.4 | 0.0 | 717.0 | ||||||||||
| 11:25 | 31.9 | 41.0 | 1021.5 | 4.8 | E | 9.7 | 0.0 | 717.0 | ||||||||||
| 11:30 | 31.9 | 40.0 | 1021.5 | 3.2 | NNE | 9.7 | 0.0 | 719.0 | ||||||||||
| 11:35 | 31.6 | 41.0 | 1021.5 | 6.4 | SE | 12.9 | 0.0 | 717.0 | ||||||||||
| 11:40 | 32.3 | 41.0 | 1021.4 | 3.2 | W | 12.9 | 0.0 | 719.0 | ||||||||||
| 11:45 | 33.1 | 38.0 | 1021.3 | 1.6 | SW | 11.3 | 0.0 | 724.0 | ||||||||||
| 11:50 | 32.7 | 39.0 | 1021.3 | 4.8 | SW | 11.3 | 0.0 | 724.0 | ||||||||||
| 11:55 | 33.2 | 40.0 | 1021.2 | 1.6 | SSW | 4.8 | 0.0 | 721.0 | ||||||||||
| 12:00 | 33.3 | 38.0 | 1021.2 | 4.8 | SSE | 11.3 | 0.0 | 721.0 | ||||||||||
| 12:05 | 33.8 | 38.0 | 1021.2 | 1.6 | SE | 11.3 | 0.0 | 715.0 | ||||||||||
| 12:10 | 33.8 | 36.0 | 1021.0 | 0.0 | NE | 12.9 | 0.0 | 724.0 | ||||||||||
| 12:15 | 33.7 | 37.0 | 1020.9 | 1.6 | NW | 6.4 | 0.0 | 719.0 | ||||||||||
| 12:20 | 34.1 | 37.0 | 1020.9 | 3.2 | NW | 6.4 | 0.0 | 717.0 | ||||||||||
| 12:25 | 34.2 | 37.0 | 1020.9 | 0.0 | N | 6.4 | 0.0 | 715.0 | ||||||||||
| 12:30 | 34.4 | 35.0 | 1020.8 | 3.2 | ESE | 6.4 | 0.0 | 710.0 | ||||||||||
| 12:35 | 34.4 | 36.0 | 1020.8 | 4.8 | ESE | 11.3 | 0.0 | 708.0 | ||||||||||
| 12:40 | 34.3 | 36.0 | 1020.7 | 4.8 | E | 11.3 | 0.0 | 703.0 | ||||||||||
| 12:45 | 34.4 | 35.0 | 1020.7 | 4.8 | ESE | 9.7 | 0.0 | 701.0 | ||||||||||
| 12:50 | 35.0 | 34.0 | 1020.7 | 4.8 | ENE | 9.7 | 0.0 | 693.0 | ||||||||||
| 12:55 | 35.0 | 35.0 | 1020.7 | 6.4 | SSE | 12.9 | 0.0 | 689.0 | ||||||||||
| 12:55 | 34.8 | 35.0 | 1020.6 | 3.2 | S | 12.9 | 0.0 | 682.0 | ||||||||||
| 13:05 | 34.6 | 33.0 | 1020.6 | 6.4 | SE | 12.9 | 0.0 | 684.0 | ||||||||||
| 13:10 | 34.3 | 33.0 | 1020.5 | 0.0 | SSE | 12.9 | 0.0 | 673.0 | ||||||||||
| 13:10 | 34.3 | 35.0 | 1020.5 | 1.6 | E | 12.9 | 0.0 | 666.0 | ||||||||||
| 13:20 | 34.6 | 32.0 | 1020.4 | 0.0 | SE | 11.3 | 0.0 | 656.0 | ||||||||||
| 13:25 | 34.8 | 33.0 | 1020.4 | 6.4 | E | 11.3 | 0.0 | 657.0 | ||||||||||
| 13:30 | 34.5 | 32.0 | 1020.3 | 1.6 | E | 6.4 | 0.0 | 645.0 | ||||||||||
| 13:35 | 34.7 | 33.0 | 1020.3 | 3.2 | N | 6.4 | 0.0 | 638.0 | ||||||||||
| 13:40 | 35.3 | 32.0 | 1020.1 | 4.8 | NE | 12.9 | 0.0 | 631.0 | ||||||||||
| 13:45 | 35.4 | 32.0 | 1020.0 | 1.6 | ESE | 12.9 | 0.0 | 615.0 | ||||||||||
| 13:45 | 35.3 | 32.0 | 1020.0 | 0.0 | NE | 8.0 | 0.0 | 612.0 | ||||||||||
| 13:55 | 35.4 | 33.0 | 1020.0 | 4.8 | SW | 11.3 | 0.0 | 608.0 | ||||||||||
| 14:00 | 35.6 | 32.0 | 1019.8 | 6.4 | SSW | 11.3 | 0.0 | 598.0 | ||||||||||
| 14:05 | 36.1 | 32.0 | 1019.8 | 4.8 | SW | 16.1 | 0.0 | 591.0 | ||||||||||
| 14:10 | 36.3 | 31.0 | 1019.8 | 4.8 | W | 11.3 | 0.0 | 584.0 | ||||||||||
| 14:15 | 36.3 | 32.0 | 1019.7 | 0.0 | SSW | 11.3 | 0.0 | 571.0 | ||||||||||
| 14:20 | 36.0 | 33.0 | 1019.6 | 6.4 | SSW | 9.7 | 0.0 | 561.0 | ||||||||||
| 14:25 | 35.8 | 33.0 | 1019.6 | 8.0 | SW | 16.1 | 0.0 | 552.0 | ||||||||||
| 14:30 | 35.8 | 33.0 | 1019.6 | 6.4 | SSW | 19.3 | 0.0 | 541.0 | ||||||||||
| 14:35 | 35.7 | 33.0 | 1019.6 | 14.5 | WSW | 22.5 | 0.0 | 529.0 | ||||||||||
| 14:40 | 35.6 | 33.0 | 1019.6 | 9.7 | SW | 22.5 | 0.0 | 522.0 | ||||||||||
| 14:45 | 35.4 | 34.0 | 1019.6 | 6.4 | WSW | 24.1 | 0.0 | 508.0 | ||||||||||
| 14:50 | 35.5 | 34.0 | 1019.6 | 6.4 | SSW | 24.1 | 0.0 | 496.0 | ||||||||||
| 14:55 | 35.3 | 34.0 | 1019.7 | 14.5 | SSW | 22.5 | 0.0 | 485.0 | ||||||||||
| 15:00 | 35.1 | 35.0 | 1019.5 | 9.7 | WSW | 24.1 | 0.0 | 443.0 | ||||||||||
| 15:05 | 34.9 | 35.0 | 1019.5 | 9.7 | SW | 20.9 | 0.0 | 462.0 | ||||||||||
| 15:10 | 34.7 | 37.0 | 1019.4 | 8.0 | S | 24.1 | 0.0 | 448.0 | ||||||||||
| 15:15 | 34.4 | 38.0 | 1019.4 | 19.3 | W | 30.6 | 0.0 | 432.0 | ||||||||||
| 15:20 | 34.2 | 39.0 | 1019.3 | 16.1 | SW | 30.6 | 0.0 | 420.0 | ||||||||||
| 15:25 | 34.2 | 40.0 | 1019.4 | 11.3 | SSW | 27.4 | 0.0 | 406.0 | ||||||||||
| 15:30 | 34.1 | 40.0 | 1019.4 | 8.0 | WSW | 27.4 | 0.0 | 390.0 | ||||||||||
| 15:35 | 34.0 | 42.0 | 1019.5 | 16.1 | S | 24.1 | 0.0 | 378.0 | ||||||||||
| 15:40 | 33.8 | 42.0 | 1019.4 | 12.9 | WSW | 22.5 | 0.0 | 366.0 | ||||||||||
| 15:45 | 33.7 | 43.0 | 1019.5 | 9.7 | SSE | 22.5 | 0.0 | 348.0 | ||||||||||
| 15:50 | 33.6 | 44.0 | 1019.5 | 6.4 | S | 24.1 | 0.0 | 338.0 | ||||||||||
| 15:55 | 33.7 | 43.0 | 1019.5 | 12.9 | SSW | 17.7 | 0.0 | 325.0 | ||||||||||
| 16:00 | 33.3 | 44.0 | 1019.6 | 8.0 | S | 24.1 | 0.0 | 313.0 | ||||||||||
| 16:05 | 33.2 | 45.0 | 1019.6 | 3.2 | S | 20.9 | 0.0 | 302.0 | ||||||||||
| 16:10 | 33.1 | 45.0 | 1019.6 | 11.3 | SSE | 22.5 | 0.0 | 287.0 | ||||||||||
| 16:15 | 32.9 | 46.0 | 1019.7 | 4.8 | S | 17.7 | 0.0 | 274.0 | ||||||||||
| 16:20 | 32.8 | 46.0 | 1019.8 | 11.3 | SW | 19.3 | 0.0 | 258.0 | ||||||||||
| 16:25 | 32.7 | 47.0 | 1019.7 | 11.3 | SSW | 19.3 | 0.0 | 244.0 | ||||||||||
| 16:30 | 32.6 | 47.0 | 1019.8 | 8.0 | SSW | 17.7 | 0.0 | 234.0 | ||||||||||
| 16:35 | 32.4 | 48.0 | 1019.8 | 6.4 | S | 16.1 | 0.0 | 220.0 | ||||||||||
| 16:40 | 32.4 | 48.0 | 1019.9 | 12.9 | SSW | 14.5 | 0.0 | 158.0 | ||||||||||
| 16:45 | 32.3 | 48.0 | 1019.9 | 4.8 | SSW | 16.1 | 0.0 | 67.0 | ||||||||||
| 16:50 | 32.3 | 48.0 | 1019.9 | 8.0 | S | 16.1 | 0.0 | 171.0 | ||||||||||
| 16:55 | 32.3 | 49.0 | 1019.9 | 12.9 | SSE | 14.5 | 0.0 | 113.0 | ||||||||||
| 17:00 | 32.2 | 48.0 | 1019.9 | 8.0 | S | 17.7 | 0.0 | 142.0 | ||||||||||
| 17:05 | 31.9 | 49.0 | 1020.0 | 4.8 | SSW | 17.7 | 0.0 | 142.0 | ||||||||||
| 17:10 | 31.8 | 49.0 | 1020.0 | 9.7 | SSW | 14.5 | 0.0 | 109.0 | ||||||||||
| 17:15 | 31.7 | 50.0 | 1020.1 | 6.4 | SSE | 12.9 | 0.0 | 69.0 | ||||||||||
| 17:20 | 31.6 | 51.0 | 1020.0 | 3.2 | SSE | 12.9 | 0.0 | 62.0 | ||||||||||
| 17:25 | 31.3 | 51.0 | 1020.1 | 3.2 | S | 9.7 | 0.0 | 39.0 | ||||||||||
| 17:30 | 31.2 | 51.0 | 1020.1 | 8.0 | SSE | 11.3 | 0.0 | 56.0 | ||||||||||
| 17:35 | 31.0 | 51.0 | 1020.1 | 1.6 | SSE | 11.3 | 0.0 | 39.0 | ||||||||||
| 17:40 | 30.8 | 47.0 | 1020.1 | 0.0 | E | 12.9 | 0.0 | 35.0 | ||||||||||
| 17:45 | 30.6 | 51.0 | 1020.2 | 0.0 | ESE | 12.9 | 0.0 | 25.0 | ||||||||||
| 17:50 | 30.3 | 51.0 | 1020.3 | 0.0 | SSE | 8.0 | 0.0 | 21.0 | ||||||||||
| 17:55 | 30.1 | 49.0 | 1020.3 | 3.2 | SSE | 9.7 | 0.0 | 18.0 | ||||||||||
| Máxima | 36.3 | 92.0 | 1023.2 | 19.3 | W | 30.6 | 0.0 | 724.0 | ||||||||||
| Mínima | 15.5 | 31.0 | 1019.3 | |||||||||||||||
| Total | 0.0 | |||||||||||||||||